Simultaneous Nadir Overpasses (SNOs) Predictions

Prediction of SNOs between AQUA and GOES-15 Satellite Orbit:

Table of predicted SNOs for the next 14.0 days since TLE Epoch: 6/20/2020
Index Date Time (AQUA) AQUA Lat,Lon GOES-15 Lat,Lon Distance(km) Time Diff (sec)
1 06/21/2020 09:55:01 -0.60,-124.92 0.01,-127.86 334.69 80
2 06/21/2020 22:16:25 -0.51,-130.11 -0.03,-127.83 259.07 80
3 06/23/2020 22:04:14 0.16,-127.16 -0.02,-127.89 83.75 80
4 06/24/2020 10:25:29 0.98,-132.31 0.03,-127.96 494.97 80
5 06/25/2020 21:52:02 0.77,-124.20 -0.02,-127.95 426.15 80
6 06/26/2020 10:13:18 0.31,-129.36 0.03,-128.01 152.72 80
7 06/28/2020 10:01:06 -0.30,-126.39 0.03,-128.07 189.25 80
8 06/28/2020 22:22:30 -0.79,-131.59 -0.04,-128.02 405.35 80
9 06/30/2020 22:10:18 -0.17,-128.63 -0.03,-128.07 63.99 80
10 07/02/2020 21:58:07 0.51,-125.68 -0.02,-128.11 276.82 80
11 07/03/2020 10:19:23 0.59,-130.84 0.03,-128.18 302.23 80




NCC Satellite Simultaneous Nadir Overpasses (SNOs) Prediction Service
